Location: Hains Lake
(37.8540°N, 99.8578°W)
Time: 21:02:04
(UTC+00:00)

Vanguard 2 Rocket - Pass Details

Date: 27 April 2021
Orbit: 553 x 3326 km, 32.9° (Epoch: 05 May)

Event Time Altitude Azimuth Distance (km) Brightness Sun altitude
Rises 18:13:28 0° 243° (WSW) 5,269 10.9 65.7°
Reaches altitude 10° 18:16:25 10° 240° (WSW) 4,578 10.7 65.8°
Maximum altitude 18:30:19 66° 162° (SSE) 3,075 12.6 66.2°
Drops below altitude 10° 18:50:15 10° 86° (E) 6,284 11.2 66.1°
Sets 18:55:07 0° 84° (E) 7,251 11.4 65.9°
